TimeCST,TemperatureF,Dew PointF,Humidity,Sea Level PressureIn,VisibilityMPH,Wind Direction,Wind SpeedMPH,Gust SpeedMPH,PrecipitationIn,Events,Conditions,WindDirDegrees,DateUTC
12:53 AM,41.0,17.1,38,29.93,10.0,SSW,11.5,-,N/A,,Clear,210,2013-02-23 06:53:00
1:53 AM,39.9,16.0,38,29.93,10.0,SW,12.7,-,N/A,,Clear,220,2013-02-23 07:53:00
2:53 AM,39.0,14.0,36,29.93,10.0,SW,8.1,-,N/A,,Clear,230,2013-02-23 08:53:00
3:53 AM,41.0,12.0,31,29.94,10.0,WSW,9.2,-,N/A,,Clear,240,2013-02-23 09:53:00
4:53 AM,39.9,12.9,33,29.94,10.0,WSW,8.1,-,N/A,,Clear,240,2013-02-23 10:53:00
5:53 AM,44.1,17.1,34,29.96,10.0,West,12.7,-,N/A,,Clear,260,2013-02-23 11:53:00
6:53 AM,37.9,19.0,47,30.01,10.0,West,5.8,-,N/A,,Clear,260,2013-02-23 12:53:00
7:53 AM,39.0,19.9,46,30.01,10.0,WSW,8.1,-,N/A,,Clear,250,2013-02-23 13:53:00
8:53 AM,46.0,19.9,35,30.01,10.0,WSW,4.6,-,N/A,,Clear,240,2013-02-23 14:53:00
9:53 AM,50.0,17.1,27,30.01,10.0,Variable,3.5,-,N/A,,Clear,0,2013-02-23 15:53:00
10:53 AM,54.0,16.0,22,29.99,10.0,West,4.6,-,N/A,,Clear,280,2013-02-23 16:53:00
11:53 AM,57.0,14.0,18,29.98,10.0,West,6.9,-,N/A,,Clear,270,2013-02-23 17:53:00
12:53 PM,60.1,14.0,16,29.94,10.0,SW,8.1,-,N/A,,Clear,220,2013-02-23 18:53:00
1:53 PM,62.1,14.0,15,29.88,10.0,West,6.9,-,N/A,,Clear,270,2013-02-23 19:53:00
2:53 PM,64.0,15.1,15,29.83,10.0,Variable,5.8,-,N/A,,Clear,0,2013-02-23 20:53:00
3:53 PM,66.0,15.1,14,29.79,10.0,Calm,Calm,-,N/A,,Clear,0,2013-02-23 21:53:00
4:53 PM,66.9,15.1,14,29.76,10.0,Calm,Calm,-,N/A,,Clear,0,2013-02-23 22:53:00
5:53 PM,66.9,16.0,14,29.74,10.0,East,3.5,-,N/A,,Clear,90,2013-02-23 23:53:00
6:53 PM,57.9,17.1,20,29.78,10.0,ENE,3.5,-,N/A,,Clear,60,2013-02-24 00:53:00
7:53 PM,57.9,18.0,21,29.78,10.0,ESE,8.1,-,N/A,,Clear,110,2013-02-24 01:53:00
9:53 PM,54.0,12.9,20,29.76,10.0,SSW,16.1,-,N/A,,Clear,200,2013-02-24 03:53:00
10:53 PM,52.0,12.0,20,29.75,10.0,SSW,16.1,-,N/A,,Clear,210,2013-02-24 04:53:00
11:53 PM,52.0,19.0,27,29.73,10.0,South,12.7,-,N/A,,Clear,170,2013-02-24 05:53:00